Regional Weather Roundup
Issued by NWS

Home | Current Version | Previous Version | Text Only | Print | Product List | Glossary Off
Versions: 1 2 3 4 5 6 7 8 9 10 11 12 13 14 15 16 17 18 19 20 21 22 23 24 25 26 27 28 29 30 31 32 33 34 35 36 37 38 39 40 41 42 43 44 45 46 47 48 49 50

000
ASUS43 KMPX 210501
RWRMN
WEATHER ROUNDUP FOR MINNESOTA
NATIONAL WEATHER SERVICE TWIN CITIES/CHANHASSEN MN
1200 AM CDT MON AUG 21 2017


NOTE: "FAIR" INDICATES FEW OR NO CLOUDS BELOW 12,000 FEET WITH NO
SIGNIFICANT WEATHER AND/OR OBSTRUCTIONS TO VISIBILITY. N/A MEANS
CURRENT SKY AND/OR WEATHER CONDITIONS ARE NOT AVAILABLE.

MNZ060>063-068>070-210600-
   Twin Cities Metro

CITY           SKY/WX    TMP DP  RH WIND       PRES   REMARKS
TWIN CITIES    PTCLDY    71  63  75 N5        30.03R
ST PAUL        PTCLDY    71  66  84 N3        30.03R
CRYSTAL        PTCLDY    68  61  78 E5        30.01S
BLAINE         PTCLDY    70  66  88 E5        30.02F
LAKEVILLE      PTCLDY    66  66 100 CALM      30.03S
EDEN PRAIRIE   PTCLDY    70  64  81 CALM      30.02R
SOUTH ST PAUL  CLEAR     71  65  82 CALM      30.03R
LAKE ELMO      FAIR      66  63  88 N3        30.05R
$$
MNZ001>005-007-008-013>017-022>024-027-028-210600-
   Northwest Minnesota

CITY           SKY/WX    TMP DP  RH WIND       PRES   REMARKS
BEMIDJI        CLEAR     50  46  87 CALM      30.05R
HALLOCK        PTCLDY    54  46  76 S5        30.01R
ROSEAU         MOCLDY    57  50  77 SW8       30.02R
WARROAD        PTCLDY    54  48  82 SW3       30.02R
CROOKSTON      CLEAR     55  46  71 S5        30.04R
FOSSTON        PTCLDY    48  45  87 CALM      30.05S
DETROIT LAKES  PTCLDY    59  54  82 CALM      30.06F
MOORHEAD       PTCLDY    61  54  77 CALM      30.05R
PARK RAPIDS    CLOUDY    58  53  84 CALM      30.05S
MAHNOMEN       FAIR      56  53  88 S3        30.05R
$$
MNZ006-009>011-018-025>026-210600-
   North Central Minnesota

CITY           SKY/WX    TMP DP  RH WIND       PRES   REMARKS
BAUDETTE       CLEAR     53  47  79 CALM      30.02R
FLAG ISLAND    CLEAR     64  46  52 CALM      29.98S HAZE
INTL FALLS     CLEAR     47  45  93 SW3       30.01R
WASKISH        PTCLDY    55  50  82 CALM      30.03R
BIG FORK       CLEAR     50  48  93 CALM      30.04S
LONGVILLE      CLEAR     50  50 100 CALM      30.04S
GRAND RAPIDS   CLEAR     55  53  93 CALM      30.06R
CRANE LAKE     CLEAR     48  46  93 CALM      30.03S
ORR            CLEAR     54  50  87 CALM      30.01R
COOK           CLEAR     54  52  94 CALM      30.04R
WALKER         FAIR      55  52  88 W5        30.05R
$$
MNZ012-019>021-037-210600-
   Northeast Minnesota

CITY           SKY/WX    TMP DP  RH WIND       PRES   REMARKS
DULUTH         CLEAR     60  55  83 NW7       30.03R
ELY            CLEAR     52  52 100 CALM      30.03R
HIBBING        CLEAR     49  48  97 CALM      30.03S
EVELETH        CLEAR     53  50  90 CALM      30.04S
DULUTH HARBOR  CLEAR     70  57  64 W7        30.02R
GRAND MARAIS     N/A     65  53  65 NW5       29.97R
$$
MNZ029>031-032-039>041-046>048-054>057-064-210600-
   West Central Minnesota

CITY           SKY/WX    TMP DP  RH WIND       PRES   REMARKS
FERGUS FALLS   CLOUDY    61  55  82 NE3       30.05S
WHEATON        PTCLDY    63  57  82 CALM      30.06S
ELBOW LAKE     LGT RAIN  63  59  88 CALM      30.05S
WADENA         CLOUDY    54  54 100 W3        30.05S
GLENWOOD       PTCLDY    63  57  82 N5        30.06R
APPLETON       CLEAR     57  55  94 CALM      30.04S
BENSON         CLEAR     55  55 100 CALM      30.06S FOG
ORTONVILLE     CLEAR     57  54  88 MISG      30.04F
MADISON        PTCLDY    63  63 100 CALM      30.05R
WILLMAR        FAIR      63  61  94 N5        30.06R
$$
MNZ033>034-036-042>043-049>051-058-059-210600-
   Central Minnesota

CITY           SKY/WX    TMP DP  RH WIND       PRES   REMARKS
ST CLOUD       PTCLDY    60  59  96 CALM      30.04R
SAUK CENTRE    FAIR      62  57  84 CALM      30.05S
PAYNESVILLE    CLOUDY    59  58  97 CALM      30.06R
AITKIN         FOG       50  48  93 CALM      30.03S VSB 1
PINE RIVER     CLEAR     52  50  93 CALM      30.08S
BRAINERD       PTCLDY    55  54  96 CALM      30.04S
STAPLES        PTCLDY    55  54  94 CALM      30.05S
LONG PRAIRIE   FAIR      61  54  77 NW5       30.05S
LITTLE FALLS   PTCLDY    57  54  88 CALM      30.05R
LITCHFIELD     CLEAR     64  61  88 CALM      30.05R
BUFFALO        PTCLDY    64  59  86 CALM      30.05R
MAPLE LAKE     PTCLDY    62  60  94 CALM      30.05R
HUTCHINSON     PTCLDY    63  61  96 SE3       30.06R
$$
MNZ037-044-045-052-053-210600-
   East Central Minnesota

CITY           SKY/WX    TMP DP  RH WIND       PRES   REMARKS
PRINCETON      PTCLDY    61  59  94 CALM      30.03S
MORA             N/A     55  54  94 CALM      30.06R FOG
CAMBRIDGE      PTCLDY    63  61  94 CALM      30.04R
RUSH CITY      MOCLDY    58  56  96 CALM      30.04R FOG
MOOSE LAKE     CLEAR     55  54  94 CALM      30.03R
HINCKLEY       FAIR      55  55 100 CALM      30.05R
CLOQUET        CLEAR     57  52  82 NW6       30.04R
MCGREGOR       CLEAR     54  54 100 CALM      30.04S
$$
MNZ071>073-080-081-089-090-097-098-210600-
   Southwest Minnesota

CITY           SKY/WX    TMP DP  RH WIND       PRES   REMARKS
MONTEVIDEO     CLEAR     59  54  82 N3        30.05R
GRANITE FALLS  CLEAR     60  59  98 W3        30.06S
CANBY          MOCLDY    60  58  92 CALM      30.06S
MARSHALL       CLOUDY    62  61  96 NW6       30.05S
REDWOOD FALLS  PTCLDY    65  62  90 CALM      30.04R
OLIVIA         CLEAR     59  57  94 CALM      30.04R
PIPESTONE      CLOUDY    66  63  88 E7        30.04S
WINDOM         CLEAR     66  63  88 NE6       30.04F
WORTHINGTON    CLOUDY    67  65  93 N3        30.04F
JACKSON        CLOUDY    66  64  94 CALM      30.03F
TRACY          CLOUDY    64  64  97 CALM      30.05S
SLAYTON        PTCLDY    64  60  86 NE3       30.06S
$$
MNZ065>067-074>077-082>085-091>093-210600-
   South Central Minnesota

CITY           SKY/WX    TMP DP  RH WIND       PRES   REMARKS
MANKATO        CLOUDY    71  67  87 E5        30.04S
NEW ULM        MOCLDY    66  64  94 N5        30.04R
ST JAMES       CLEAR     66  64  94 CALM      30.04S
FAIRMONT       FOG       68  66  93 N5        30.03F VSB 1
GLENCOE        CLEAR     64  65 100 CALM      30.03S
FARIBAULT      CLEAR     70  66  88 CALM      30.04S
OWATONNA       CLEAR     68  66  94 CALM      30.04R
WASECA         PTCLDY    70  68  94 CALM      30.05S
ALBERT LEA     CLEAR     72  70  94 CALM      30.04R
$$
MNZ078>079-086>088-094>096-210600-
   Southeast Minnesota

CITY           SKY/WX    TMP DP  RH WIND       PRES   REMARKS
ROCHESTER      CLEAR     67  66  97 SE3       30.04F
RED WING       CLEAR     72  63  73 W5        30.01R
STANTON        MOCLDY    69  67  93 CALM      30.02S
DODGE CENTER   CLEAR     66  64  94 CALM      30.04S
WINONA         CLEAR     70  68  94 CALM      30.02S
AUSTIN         CLEAR     70  66  88 SE3       30.04S
PRESTON        CLEAR     68  65  88 SW6       30.05S
$$
ABBREVIATIONS USED IN REMARKS
   TC - TEMPERATURES IN CELSIUS
  WCI - WIND CHILL INDEX
   HX - HEAT INDEX
  VSB - VISIBILITY
$$



USA.gov is the U.S. government's official web portal to all federal, state and local government web resources and services.